This is the latest recevied weather packets stored in our database for station/object F4FEB-13. If no packets are shown the sender has not sent any weather packets the latest 1 day(s).
| Time | Temp. | Humidity | Pressure | Rain* | Wind** | Luminosity | Snow |
|---|---|---|---|---|---|---|---|
| 1777980558 | 14.44° C | 83% | 1008.3 hPa | 0.25 mm | 1.79 m/s, 253° | - | - |
| 1777980259 | 14.44° C | 84% | 1008.4 hPa | 0.25 mm | 0.45 m/s, 243° | - | - |
| 1777980258 | 14.44° C | 84% | 1008.4 hPa | 0.25 mm | 0.45 m/s, 243° | - | - |
| 1777979959 | 14.44° C | - | - | - | 1.79 m/s, 160° | - | - |
| 1777979958 | 14.44° C | 84% | 1008.4 hPa | 0.25 mm | 1.79 m/s, 160° | - | - |
| 1777979658 | 14.44° C | 84% | 1008.4 hPa | 0 mm | 0 m/s | - | - |
| 1777979358 | 15° C | 83% | 1008.3 hPa | 0 mm | 1.34 m/s, 295° | - | - |
| 1777979058 | 15° C | 79% | 1008.3 hPa | 0 mm | 1.34 m/s, 312° | - | - |
| 1777978764 | 15.56° C | 71% | 1008.3 hPa | 0 mm | 1.34 m/s, 310° | - | - |
| 1777978758 | 15.56° C | 71% | 1008.3 hPa | 0 mm | 1.34 m/s, 310° | - | - |
| 1777978458 | 15.56° C | 73% | 1008.4 hPa | 0 mm | 0 m/s | - | - |
| 1777978158 | 15.56° C | 71% | 1008.5 hPa | 0 mm | 0.89 m/s, 199° | - | - |
| 1777977861 | 15.56° C | 74% | 1008.5 hPa | 0 mm | 1.34 m/s, 135° | - | - |
| 1777977858 | 15.56° C | 74% | 1008.5 hPa | 0 mm | 1.34 m/s, 135° | - | - |
| 1777977558 | 15.56° C | 75% | 1008.5 hPa | 0 mm | 0 m/s | - | - |
| 1777977258 | 15° C | 77% | 1008.5 hPa | 0 mm | 0.89 m/s, 95° | - | - |
| 1777976962 | 15° C | 78% | 1008.5 hPa | 0 mm | 1.34 m/s, 136° | - | - |
| 1777976958 | 15° C | 78% | 1008.5 hPa | 0 mm | 1.34 m/s, 136° | - | - |
| 1777976658 | 14.44° C | 79% | 1008.6 hPa | 0 mm | 1.79 m/s, 203° | - | - |
| 1777976358 | 14.44° C | 83% | 1008.6 hPa | 0 mm | 1.79 m/s, 241° | - | - |
| 1777976059 | 14.44° C | 85% | 1008.6 hPa | 0 mm | 0.89 m/s, 161° | - | - |
| 1777975759 | 14.44° C | 87% | 1008.6 hPa | 0 mm | 0 m/s | - | - |
| 1777975459 | 13.89° C | 87% | 1008.6 hPa | 0 mm | 0 m/s | - | - |
| 1777975162 | 13.89° C | 88% | 1008.6 hPa | 0 mm | 0 m/s | - | - |
| 1777975159 | 13.89° C | 88% | 1008.6 hPa | 0 mm | 0 m/s | - | - |
* Rain latest hour (hover to see other rain measurements)
** Current wind speed in m/s (hover to see current wind gust speed)